Theta_e
317 316 317 318 318 318 319 321 322 324 326 328 331 333 332 332 332 333 334 334 334 335 335 335 335 334 335 334 334 333 332 332 333 334 333 333 333 334 335 336 334 334 330 330 335 335 336 335 335 335 337 333 333 336 335 333 335 336 335 334 333 334 332 329 325 324 328 332 332 329 331 332 329 330 328 328 327 328 323 324 325 321 318 322 325
315 316 317 316 316 317 318 320 320 321 322 324 326 329 331 332 333 332 333 333 335 334 334 335 335 335 334 334 334 334 332 332 334 334 332 332 332 333 333 334 332 333 328 329 328 332 336 335 334 336 334 332 332 331 335 335 334 333 333 333 331 332 334 330 327 325 323 326 328 331 329 331 327 330 328 327 326 328 322 324 325 317 317 321 323
315 315 316 316 316 316 317 318 319 320 320 321 321 322 325 329 332 333 332 333 334 335 335 335 335 335 335 335 334 334 334 333 334 334 332 332 331 332 334 336 334 330 330 333 330 331 334 333 335 336 334 332 333 332 334 333 334 332 333 333 332 333 332 331 329 323 323 322 327 327 328 329 329 327 327 327 327 325 321 322 321 317 317 320 320
315 315 315 315 317 317 316 317 318 318 318 318 319 320 322 324 328 331 332 333 332 335 336 335 335 335 335 334 334 333 333 334 334 334 333 332 331 333 334 334 334 334 331 331 332 332 333 334 335 334 332 332 332 333 332 334 334 333 332 333 333 332 334 334 332 327 326 323 325 324 327 328 327 328 324 325 326 324 322 321 321 319 316 317 318
314 313 314 314 315 315 316 316 316 316 316 317 317 319 320 322 325 327 330 331 333 334 335 335 335 334 334 333 333 331 333 333 333 333 333 334 334 334 335 334 335 332 330 331 332 328 331 330 332 332 333 332 332 332 333 335 334 333 332 331 331 333 333 333 332 330 328 325 325 325 327 328 327 325 323 322 323 323 322 322 321 318 318 317 316
314 312 313 313 313 314 315 315 314 315 315 316 317 318 320 321 323 326 328 330 331 333 334 334 334 333 333 332 333 331 332 332 333 333 332 332 333 334 335 333 334 332 332 332 332 333 333 331 333 333 333 333 333 333 335 335 334 333 333 331 330 331 333 333 333 331 328 327 325 323 325 323 323 322 322 322 321 319 320 321 321 320 317 316 316
312 312 312 313 312 313 313 313 313 314 315 316 316 317 319 320 321 323 326 328 329 330 331 331 333 333 334 333 334 333 334 335 334 333 332 332 333 333 333 335 334 332 331 330 332 332 333 333 332 333 333 334 334 335 335 336 334 334 334 333 330 329 330 332 330 330 329 328 326 324 321 323 323 320 320 322 322 321 320 319 319 318 319 318 316
311 311 311 311 311 311 312 313 313 313 314 315 314 316 317 318 320 323 324 326 328 329 329 329 331 333 333 332 332 333 335 335 334 332 331 332 332 333 332 330 332 332 332 331 332 334 335 333 332 331 333 335 336 335 336 335 335 334 333 333 331 328 330 330 330 328 327 327 325 324 322 320 321 322 320 321 320 319 320 320 317 317 318 319 318
310 310 310 310 310 311 311 312 313 313 313 313 313 313 315 316 317 317 320 324 327 329 329 329 330 331 331 332 331 330 330 333 334 333 332 332 332 331 331 335 334 332 330 332 337 337 337 338 334 335 333 328 319 318 318 320 333 330 332 332 331 332 329 328 327 326 325 326 325 326 323 321 321 322 319 319 319 319 322 322 320 319 318 318 317
309 309 309 309 310 310 310 311 311 312 311 311 312 312 312 313 314 314 315 317 321 325 327 327 328 329 329 329 331 329 330 330 328 316 319 331 332 333 335 334 332 331 331 333 335 336 336 336 335 329 322 322 318 311 310 312 315 326 330 330 334 330 329 328 326 326 325 324 326 325 322 321 321 323 322 322 324 324 321 321 318 317 317 316 317
309 309 308 309 309 309 309 310 310 310 310 310 311 310 310 311 311 312 313 315 316 319 323 325 326 327 328 327 329 330 330 329 315 307 308 312 329 334 334 332 331 332 333 333 334 335 336 336 337 331 327 322 325 307 308 306 308 311 311 312 313 331 328 331 327 332 328 324 327 325 323 322 321 325 324 324 324 323 321 322 320 317 314 312 310
309 308 309 309 309 308 308 309 309 309 309 309 309 309 309 309 309 309 310 311 313 315 316 319 324 327 328 328 329 328 328 318 307 304 305 305 313 335 333 330 332 333 333 333 333 335 335 334 334 335 335 335 335 327 315 304 306 304 301 300 300 296 300 321 328 327 329 327 321 322 319 320 323 324 324 323 321 321 322 322 319 316 315 312 312
308 308 308 308 308 308 308 308 307 307 308 308 308 308 308 307 306 307 307 309 310 310 310 311 313 320 327 326 327 328 329 307 301 302 302 303 304 316 331 332 333 332 332 329 330 333 333 333 333 335 333 326 331 334 331 321 300 296 296 299 300 302 299 298 300 322 326 328 323 321 321 322 323 326 326 323 322 320 320 318 319 317 316 314 314
307 307 307 307 308 308 307 307 306 307 307 307 307 306 306 305 306 306 307 307 307 307 307 307 308 311 316 322 326 328 327 298 297 298 299 299 301 306 329 332 333 329 330 330 332 332 333 333 332 332 332 331 333 335 333 330 326 324 325 329 327 313 302 304 304 299 311 328 328 322 324 325 324 327 326 324 321 318 317 314 316 316 316 315 319
306 306 306 307 307 307 307 306 306 306 306 306 306 305 305 305 305 305 305 305 304 304 304 304 305 306 308 311 316 320 312 292 294 295 296 296 297 300 328 328 331 330 330 330 331 332 333 334 333 331 331 331 333 330 332 331 330 330 330 330 328 326 324 322 325 330 330 328 328 328 326 327 327 327 325 324 323 322 319 318 320 320 319 322 322
304 305 305 305 306 307 306 306 306 306 305 305 305 305 304 304 303 303 304 304 304 303 304 303 302 302 304 306 308 310 311 292 292 294 294 295 295 313 327 328 328 328 328 329 329 328 329 330 327 327 329 331 315 308 318 330 330 328 326 324 320 317 311 299 294 297 315 324 324 323 317 309 304 321 325 326 322 320 319 324 323 321 318 315 314
304 304 304 305 305 305 306 305 305 305 305 304 304 304 303 303 302 303 302 302 301 301 301 301 301 300 300 301 302 304 307 297 291 294 293 294 298 318 325 323 323 321 321 324 325 326 327 328 330 328 329 328 307 302 305 313 327 324 322 320 318 316 312 307 296 294 294 293 293 293 293 294 295 295 295 295 312 318 321 316 315 317 316 313 317
304 304 304 305 305 305 305 305 305 305 305 304 303 303 303 303 302 302 301 300 299 299 300 300 300 300 299 299 299 301 301 298 292 292 296 295 302 318 320 320 318 315 314 317 319 316 310 303 313 329 327 321 296 298 300 315 325 322 321 318 316 314 311 311 309 303 295 295 294 294 295 295 296 296 296 298 300 310 322 317 321 320 319 317 314
303 303 304 304 305 305 306 306 305 305 304 305 305 304 303 302 302 302 301 300 299 300 300 299 298 299 299 299 299 299 299 299 294 292 292 294 306 315 315 314 313 312 310 309 311 310 308 304 298 307 316 305 294 297 297 310 324 322 320 318 315 313 312 312 310 309 310 311 312 313 310 306 311 311 308 298 301 307 318 316 316 316 315 312 311
304 304 304 305 305 305 305 305 305 305 304 305 305 304 304 303 302 301 301 300 299 299 299 299 298 297 298 298 298 298 297 297 296 292 293 294 298 310 312 312 306 306 307 307 306 304 303 303 299 291 291 292 293 293 295 300 320 320 319 317 314 311 313 313 313 314 313 311 311 311 310 310 309 310 311 310 309 309 311 313 314 313 312 309 309
304 304 304 304 304 304 304 305 304 305 305 304 304 304 304 303 302 301 300 300 299 298 298 299 298 298 297 297 297 297 297 296 295 292 293 294 295 300 306 306 307 306 305 303 302 301 300 300 299 292 290 291 291 291 292 297 305 319 318 316 314 310 307 309 307 303 309 308 307 307 307 307 307 307 307 307 307 308 309 310 312 313 312 310 307
304 304 304 304 304 304 304 304 305 305 304 304 304 303 304 304 303 302 301 299 299 298 298 298 298 298 298 297 296 296 297 295 295 293 292 293 293 295 300 299 301 303 300 298 298 297 296 296 295 291 290 291 291 292 293 294 298 315 309 296 295 296 306 307 307 307 306 306 306 305 306 305 305 305 305 304 306 308 310 309 309 310 311 313 312
304 304 304 303 304 304 304 304 304 305 305 305 304 303 303 303 303 303 301 300 298 298 298 298 298 298 297 297 297 297 297 295 292 293 291 291 292 292 293 295 294 299 297 295 295 295 295 294 293 291 290 290 290 291 292 295 298 300 293 294 295 295 301 309 308 307 306 306 306 305 305 305 305 305 305 305 307 309 309 309 309 309 307 308 308
303 303 303 303 303 303 303 304 304 304 304 304 303 303 302 303 302 301 301 299 298 298 298 298 298 297 297 298 297 297 297 297 294 292 291 290 290 290 290 291 292 295 296 295 295 295 294 294 292 290 291 291 291 291 290 292 295 291 293 294 295 298 310 309 308 308 305 306 306 305 306 306 306 304 303 305 305 307 308 308 308 309 309 308 307
302 302 302 303 303 303 303 304 304 304 304 303 302 302 302 302 300 301 301 300 299 297 297 297 296 297 297 296 296 296 296 297 296 294 292 291 290 290 290 290 290 291 293 293 293 293 290 290 290 291 291 292 292 293 293 292 291 291 292 294 301 309 308 308 307 308 306 305 304 304 304 304 305 304 305 304 305 307 306 306 306 307 307 307 306
301 301 302 302 302 303 303 303 303 304 304 303 303 302 302 301 299 300 300 300 300 298 297 296 296 296 296 297 297 296 296 296 296 296 296 295 293 292 291 291 292 291 292 291 290 290 290 290 291 291 292 293 295 295 295 295 292 292 293 296 302 303 305 306 305 303 301 301 299 300 301 302 303 304 305 305 304 303 304 304 305 304 305 305 304
300 301 301 301 302 302 302 302 302 303 304 303 303 302 302 301 300 299 298 298 299 298 298 297 296 295 294 295 295 296 296 297 296 296 297 296 296 296 296 296 294 294 296 296 295 295 293 293 292 291 291 291 291 292 293 293 296 297 298 297 297 298 299 301 301 300 300 300 299 299 299 301 303 303 301 300 300 301 304 302 303 302 303 303 302
300 300 300 301 300 301 301 294 298 302 302 302 301 301 301 302 300 298 298 297 297 297 298 297 297 296 295 295 294 294 294 294 292 292 294 296 296 296 295 295 295 295 295 296 296 296 296 293 294 296 295 295 295 295 294 294 293 294 296 296 296 296 296 295 295 297 298 298 298 298 298 299 299 299 300 299 299 299 301 301 300 300 300 302 300
300 300 300 300 300 300 301 301 301 301 301 302 303 302 300 300 300 300 300 298 296 296 298 298 298 299 298 296 295 293 293 292 291 289 290 289 291 295 294 294 295 294 292 291 295 294 294 294 293 293 293 291 291 292 293 293 292 293 294 295 296 296 296 296 295 294 295 296 296 296 296 297 296 297 297 297 297 298 300 300 301 300 300 301 299
300 299 300 299 299 299 300 299 301 300 301 300 301 300 288 290 296 300 299 291 288 288 289 294 295 297 299 298 297 294 293 292 288 288 289 289 289 289 289 289 289 291 290 290 293 292 291 290 291 291 292 292 291 290 291 292 291 291 291 290 292 294 294 294 294 294 294 294 295 294 294 295 296 297 297 296 297 297 297 296 299 300 299 298 298
298 298 298 299 297 299 299 299 300 300 301 301 300 300 299 294 287 289 290 289 289 288 288 288 288 288 293 299 296 286 288 288 288 288 289 289 288 288 288 288 288 288 289 291 291 290 290 289 290 291 291 291 290 290 290 290 289 289 290 291 292 291 291 293 293 292 292 292 292 293 294 294 294 295 294 294 295 295 296 298 298 299 299 299 299
298 298 298 299 298 299 299 299 299 299 299 300 300 300 299 300 299 289 289 290 288 288 289 289 288 288 288 290 295 300 291 288 288 288 288 288 288 288 288 288 288 289 289 291 290 290 290 290 289 290 290 289 288 289 290 290 290 290 290 289 289 290 291 291 292 294 291 292 292 292 293 293 293 292 293 293 293 295 295 293 296 296 297 298 298
300 299 299 299 298 298 298 298 296 299 299 298 299 299 299 298 297 299 295 288 288 290 289 289 289 289 288 288 288 288 288 288 288 288 288 288 288 288 288 288 288 288 291 292 291 291 291 291 291 291 291 289 290 290 290 290 290 290 290 290 289 290 292 291 290 293 291 293 292 292 293 292 292 292 292 292 293 291 292 294 296 297 296 293 294
300 300 299 299 299 299 299 299 299 299 299 299 298 298 298 299 299 298 298 299 297 293 289 288 289 290 289 288 288 288 288 288 288 288 288 288 288 289 289 290 289 290 291 293 292 291 292 291 291 291 291 291 291 290 290 290 290 291 291 291 291 292 293 294 293 292 292 292 292 292 292 292 292 292 292 292 293 293 292 292 294 292 293 293 294
301 295 292 295 300 299 299 299 299 299 298 299 298 297 298 298 298 298 298 296 296 296 299 299 292 289 293 292 289 287 288 288 288 288 288 288 288 288 289 294 292 294 295 295 294 293 291 291 291 291 291 290 290 290 291 291 291 291 291 291 292 292 292 292 292 292 291 291 292 291 291 291 292 292 292 291 292 291 292 292 291 293 293 293 294
300 300 301 299 300 300 300 300 300 299 298 299 299 299 297 298 297 298 296 296 297 297 296 298 299 291 289 289 287 288 288 288 288 288 287 288 288 287 294 293 292 293 292 293 293 292 292 292 292 291 292 291 292 292 292 292 292 292 292 292 290 291 290 290 290 291 290 291 291 291 291 291 292 292 292 292 292 292 292 292 292 292 292 293 293
300 300 300 300 301 301 300 300 301 299 295 296 297 298 297 298 296 297 296 297 296 298 298 298 299 299 295 297 293 290 288 288 289 288 289 289 288 293 297 295 294 293 292 292 292 292 292 292 293 293 293 292 292 292 293 293 292 292 291 292 292 292 291 291 291 290 291 291 292 291 290 291 292 291 292 291 291 292 292 291 291 291 291 290 290
301 300 300 300 301 301 300 301 299 293 296 298 298 299 298 298 298 296 295 296 296 295 297 297 294 296 296 298 298 295 294 292 290 290 292 292 293 295 295 294 294 293 293 293 293 293 292 293 293 293 293 293 293 293 293 293 292 291 291 291 290 290 289 290 289 290 290 291 291 291 291 291 291 292 291 292 291 291 291 291 292 292 291 291 292
301 293 290 291 293 299 300 298 298 300 299 298 298 297 294 295 296 296 296 296 295 295 295 296 296 296 297 297 298 297 294 294 293 293 293 294 295 295 295 294 294 293 294 293 293 293 293 293 293 294 294 294 293 294 293 293 293 292 290 290 290 291 291 291 291 291 291 291 292 292 292 292 292 292 292 291 291 291 291 290 291 292 292 292 292
300 300 296 292 296 297 300 298 299 298 296 298 297 297 296 295 296 296 296 295 294 294 295 294 295 296 298 297 296 296 295 293 293 293 293 293 294 293 295 293 292 294 294 294 294 294 294 294 295 294 294 294 294 294 294 293 291 292 292 291 291 291 291 291 291 291 291 292 292 292 291 291 292 292 292 292 291 291 291 291 291 291 292 292 292
299 299 294 295 294 299 297 298 297 299 297 297 298 297 296 296 296 294 296 294 293 294 294 295 296 298 295 290 287 287 295 294 294 294 293 292 292 293 294 294 292 293 294 293 294 294 294 294 294 294 294 294 294 294 294 293 292 292 292 291 291 291 291 291 291 291 291 291 291 291 292 292 292 292 290 291 291 292 292 292 292 293 292 292 292
298 297 298 298 299 298 298 296 297 296 297 298 298 297 295 295 296 295 294 293 293 293 294 295 296 296 291 284 288 286 293 295 295 293 294 294 294 294 293 293 293 294 294 294 294 292 292 294 292 294 293 292 293 292 293 291 292 292 291 291 291 291 291 291 291 291 291 291 291 291 291 291 291 291 291 291 292 292 292 293 293 292 293 292 292
298 296 296 297 297 296 296 298 297 298 297 297 297 294 294 295 297 295 294 294 293 293 293 294 295 295 294 289 288 287 295 295 291 293 293 292 292 292 293 293 292 293 294 295 295 295 293 293 293 294 293 293 293 292 293 293 293 292 292 291 291 291 291 291 291 291 291 291 291 290 290 291 292 292 292 291 292 292 292 292 292 292 292 292 292
297 295 295 294 297 296 295 298 298 297 298 294 293 295 295 297 296 295 295 295 293 294 294 295 294 294 294 294 293 294 295 294 294 293 292 291 292 290 292 290 292 291 293 293 295 294 294 293 294 293 294 294 293 296 293 292 293 293 292 292 291 291 291 291 291 291 292 292 291 291 291 291 291 292 291 291 292 291 291 290 291 291 292 292 291
298 297 296 295 295 296 295 298 299 297 295 295 297 297 296 297 296 295 296 295 294 294 294 293 294 294 293 293 294 294 294 294 291 291 291 290 290 291 291 291 291 291 292 292 294 295 293 294 292 293 292 294 293 295 293 294 294 292 293 292 292 292 291 291 291 292 292 291 292 292 292 292 292 292 292 292 291 291 291 291 291 289 290 291 291
297 297 295 295 294 292 293 296 295 298 297 297 296 297 297 296 296 295 296 296 294 294 295 294 293 293 294 294 294 292 294 293 292 291 290 291 291 290 290 290 291 291 291 292 292 292 293 293 293 293 293 293 294 294 295 295 295 295 295 295 292 293 293 292 292 292 292 291 292 293 292 292 292 292 289 292 293 292 291 291 291 291 291 290 290
299 298 298 296 294 293 294 294 295 295 297 296 297 296 296 297 297 295 293 295 295 296 295 295 294 294 294 294 293 294 293 292 292 292 291 291 290 289 290 290 290 291 292 292 291 293 293 293 293 292 292 293 293 293 295 295 296 295 295 295 295 294 292 293 292 292 292 292 292 293 293 292 292 292 291 291 292 291 290 291 291 289 290 291 291
298 296 296 294 295 293 293 294 293 291 295 295 295 296 294 296 296 295 295 295 295 295 295 295 295 295 294 294 294 294 294 294 293 291 291 290 290 290 289 289 289 291 291 291 291 291 293 292 291 292 292 292 292 293 294 295 295 295 295 294 293 291 288 288 293 293 293 293 292 292 292 292 293 292 292 291 291 291 291 291 291 292 291 291 291
298 297 296 296 294 293 293 292 291 293 294 295 294 295 294 295 296 296 296 296 295 296 296 295 295 295 294 295 294 293 294 293 294 293 291 290 289 290 290 289 289 289 290 291 291 290 290 290 290 291 291 291 291 292 291 292 294 294 293 292 285 279 281 280 287 289 288 291 292 292 292 291 291 291 290 291 291 291 292 290 290 290 291 291 290
298 296 295 294 295 293 294 294 295 294 295 294 295 295 294 295 295 296 296 296 297 297 298 296 295 296 295 294 293 294 293 293 293 292 292 290 290 290 289 290 289 290 290 290 290 290 290 289 290 291 291 291 291 290 291 290 291 291 289 284 280 280 281 279 282 280 287 292 293 293 293 292 291 292 292 292 291 290 290 290 290 289 290 290 290
296 296 295 295 295 295 294 294 294 294 295 295 295 294 294 295 296 296 297 296 296 296 295 296 296 296 295 295 293 294 295 295 294 293 292 290 290 290 289 289 289 289 290 290 290 290 290 290 291 291 291 290 290 291 291 290 289 285 282 279 280 280 279 281 286 284 280 283 289 292 293 292 291 291 291 292 292 291 289 290 290 290 290 291 290
Wind_Speed
11 11 10 11 12 12 11 11 11 10 10 10 10 9 7 7 8 9 9 9 9 9 8 9 9 9 10 10 11 11 11 11 11 10 11 11 11 12 12 11 10 10 5 10 10 11 11 11 11 11 7 5 5 8 12 13 11 8 8 8 8 8 8 8 8 7 4 3 6 8 9 11 10 10 10 8 9 8 8 7 9 7 8 7 10
12 12 11 11 13 12 13 11 10 10 11 10 10 10 9 8 8 7 9 10 9 10 10 8 9 9 9 10 11 11 13 13 12 11 11 10 12 10 12 11 12 8 10 11 12 10 10 11 12 11 9 10 11 14 11 10 10 10 10 9 9 8 9 8 8 7 7 5 6 8 9 10 9 10 10 10 9 10 10 7 7 8 8 7 8
12 12 12 12 12 12 12 11 11 12 12 10 10 10 10 10 10 8 8 8 10 10 10 9 9 10 10 10 11 11 12 12 11 11 10 12 14 13 13 12 12 12 15 14 13 14 12 12 12 11 9 11 11 12 10 11 10 10 11 9 9 9 9 9 7 8 9 7 7 8 9 10 9 10 11 9 9 10 10 9 8 8 7 7 7
11 11 12 13 13 13 13 12 12 12 12 11 12 11 10 10 10 9 9 8 9 9 10 10 9 10 11 10 11 11 12 11 11 11 13 13 13 14 14 13 11 10 8 10 9 5 10 12 12 10 11 10 11 11 10 10 10 10 11 10 9 9 8 8 9 6 7 8 9 9 9 10 10 9 10 9 9 9 8 8 9 8 8 8 7
12 13 12 13 13 13 14 13 13 13 13 12 13 13 12 10 9 10 9 9 10 9 9 10 10 10 10 11 11 12 12 12 13 13 12 12 13 13 13 13 12 11 11 12 7 14 13 9 10 12 10 13 12 11 11 12 11 11 10 10 9 9 8 8 9 8 7 8 8 8 9 10 10 8 10 9 9 8 8 8 8 8 8 7 7
12 12 12 13 13 14 14 14 14 14 14 13 13 12 11 10 10 9 9 9 9 11 9 9 9 11 11 12 10 11 12 12 13 13 14 13 13 12 11 12 12 12 11 10 13 15 10 16 13 7 11 13 12 12 12 13 12 11 11 10 11 9 9 9 8 9 10 8 8 7 7 10 10 9 9 9 8 9 8 8 7 7 7 7 7
12 11 12 13 13 14 14 14 14 14 14 13 12 11 11 11 10 10 9 9 9 9 9 10 10 10 10 11 13 13 13 13 12 12 13 13 13 13 11 9 12 10 8 9 11 7 8 7 10 11 12 13 13 13 12 13 11 11 11 11 10 10 10 9 9 10 11 9 9 9 9 8 8 8 9 9 9 8 9 8 8 8 7 7 8
12 12 12 12 13 14 13 13 14 14 14 13 12 12 11 11 11 10 9 9 9 8 9 10 10 11 11 10 8 11 11 12 12 12 11 12 12 12 12 14 14 11 9 11 14 12 12 12 12 13 13 13 13 12 13 11 10 10 9 10 10 10 10 9 10 11 11 11 10 10 10 9 8 8 8 9 9 9 9 8 8 8 8 8 8
12 12 12 12 13 13 13 13 13 14 14 14 13 13 12 12 12 12 11 10 7 8 9 10 12 12 12 10 9 5 10 11 10 11 11 11 10 11 14 14 12 10 11 14 12 10 10 9 6 7 2 7 8 6 6 8 3 10 9 7 10 8 9 9 10 12 10 10 10 11 10 9 9 9 8 9 10 9 8 7 7 7 8 7 8
12 12 13 13 13 14 13 14 14 14 15 15 14 14 13 13 12 12 11 11 12 10 8 9 10 12 11 11 7 8 7 11 8 12 12 11 12 12 11 10 11 12 13 11 10 10 10 9 10 9 6 10 8 6 7 8 11 6 3 8 7 8 4 8 10 10 12 13 9 9 11 10 10 10 8 8 8 8 8 8 8 7 6 6 6
12 13 13 13 13 14 14 14 14 15 15 15 15 15 15 13 12 13 12 12 12 12 11 10 10 10 11 10 9 7 8 8 7 11 13 13 13 10 10 10 14 13 11 11 10 10 10 9 9 8 9 7 6 9 10 11 8 1 1 2 5 2 8 8 10 6 7 12 6 6 7 11 11 8 8 7 7 8 8 7 8 8 7 7 7
13 13 13 13 14 15 14 15 15 15 16 16 16 16 15 14 14 13 13 13 13 12 12 12 11 10 10 11 9 8 8 8 10 12 13 13 12 8 8 12 12 10 10 9 8 9 9 9 8 7 8 9 10 8 5 3 3 4 5 6 6 8 6 1 4 7 7 2 4 5 3 2 1 4 5 5 6 6 6 6 7 8 8 8 7
13 13 13 14 14 14 15 15 15 15 16 16 15 15 16 16 15 14 14 13 12 12 13 12 12 12 10 11 11 9 7 5 11 10 12 14 15 12 11 11 10 9 9 11 11 9 9 9 9 7 6 7 8 9 8 6 6 7 7 7 6 5 5 5 6 1 4 3 8 8 9 10 12 9 8 7 4 5 5 5 5 6 7 7 8
13 14 14 14 14 15 15 15 16 16 15 15 15 15 16 16 16 13 12 13 13 13 12 13 12 12 12 10 9 9 3 6 2 6 9 11 15 11 11 11 10 11 10 9 8 9 10 9 9 8 7 8 8 8 8 9 8 7 6 7 5 4 3 2 1 1 3 6 4 9 8 7 7 7 6 7 7 6 4 2 2 4 5 6 4
13 13 14 14 14 15 15 15 16 16 16 15 15 15 15 15 15 14 12 13 12 12 12 12 11 11 11 11 10 5 5 9 5 5 6 6 11 9 7 11 8 7 7 7 8 8 9 9 8 8 9 10 8 8 9 8 8 7 7 6 4 2 2 4 3 3 5 5 6 6 8 7 6 5 6 5 7 6 5 3 3 4 4 3 3
14 14 14 14 14 15 15 14 15 15 15 15 16 16 16 15 15 13 12 11 11 12 11 10 11 11 11 10 9 8 6 12 9 6 5 8 7 6 10 5 6 6 6 7 7 6 4 6 8 9 10 10 8 8 6 8 8 8 8 7 5 6 7 7 5 8 9 7 6 6 7 7 9 6 5 3 6 4 4 3 1 3 5 6 6
14 14 14 14 14 14 14 14 14 15 15 15 16 15 15 15 14 13 13 12 12 12 12 11 11 11 12 10 10 8 8 12 12 7 6 5 5 7 5 4 4 6 6 6 7 6 4 2 6 8 8 7 10 9 8 8 8 9 8 7 6 7 7 7 12 15 16 17 16 15 13 13 13 13 12 12 7 1 6 6 7 8 9 8 7
14 13 13 13 14 14 14 14 14 15 15 16 15 14 14 13 13 12 12 13 13 13 12 11 11 11 13 12 11 8 9 12 14 7 1 6 7 5 5 4 4 6 5 5 5 6 7 12 10 6 7 8 11 10 10 9 8 9 9 9 9 9 8 8 8 10 15 16 16 15 14 13 14 14 14 13 13 8 6 8 5 6 8 7 4
14 14 13 12 12 13 13 14 14 14 14 14 13 14 14 14 12 11 12 12 12 12 12 12 11 11 12 13 17 13 10 11 15 11 9 6 1 2 2 3 5 6 6 5 6 7 7 9 15 10 8 10 11 9 5 5 8 9 9 10 10 10 9 10 11 12 11 11 10 10 10 10 10 10 10 14 14 11 9 6 2 1 1 4 5
13 13 13 13 12 13 13 14 13 14 14 13 13 12 11 11 13 12 12 11 11 12 12 12 14 13 12 13 14 14 13 11 14 14 11 12 10 6 4 1 3 7 6 6 7 8 8 8 10 14 14 12 11 9 8 6 7 9 9 8 10 11 9 9 7 8 9 9 9 9 9 9 9 9 8 9 10 11 10 8 7 4 3 4 2
12 13 12 13 14 14 13 13 14 13 13 12 12 12 12 11 11 11 11 11 12 12 13 13 13 14 14 14 13 15 14 13 13 17 11 14 15 10 6 5 5 7 7 8 7 7 7 7 5 9 14 14 12 12 11 9 5 8 7 7 7 10 9 8 8 8 10 9 9 8 8 8 8 8 7 7 6 5 6 6 5 3 1 1 3
11 12 13 13 13 14 14 14 13 11 11 12 12 12 11 12 12 12 10 10 12 13 13 13 13 13 13 14 15 14 14 22 13 16 11 16 17 16 10 9 8 8 10 8 9 8 7 6 5 10 16 16 15 14 13 13 13 6 11 16 16 14 10 9 8 7 7 7 7 7 7 7 7 7 7 6 5 5 5 5 5 5 5 5 5
12 12 12 13 13 13 13 14 13 12 12 12 13 13 12 12 13 13 12 12 12 11 13 13 12 13 11 12 12 12 11 14 22 14 14 18 19 20 20 14 15 11 11 11 9 8 7 7 8 14 18 18 17 16 15 15 12 9 15 13 12 12 10 7 7 6 6 7 7 7 6 6 6 6 6 5 5 5 5 5 5 5 6 6 6
11 11 11 12 12 12 12 13 13 13 14 14 13 14 13 12 12 12 13 12 11 11 11 11 10 11 12 12 13 11 9 9 14 16 15 20 22 23 22 20 18 13 11 9 9 8 9 9 10 17 19 20 20 19 18 15 10 11 10 10 6 5 6 8 6 6 7 6 6 6 6 6 6 6 5 5 5 5 5 5 5 5 5 5 6
11 11 12 12 12 11 12 11 12 13 13 13 14 13 14 13 11 12 13 12 12 12 10 10 10 9 9 10 11 10 9 8 8 14 19 20 23 24 24 24 20 19 15 10 9 7 10 13 16 17 17 18 19 17 15 15 16 14 14 12 6 6 6 5 6 5 6 6 7 7 7 6 6 6 6 5 4 5 5 5 5 6 7 7 7
11 11 11 11 11 11 12 12 11 12 12 12 13 13 13 13 12 11 11 12 13 13 12 11 9 10 10 11 11 10 10 9 10 10 10 14 17 22 22 20 20 19 17 12 12 12 13 15 17 17 15 13 11 10 8 10 14 15 15 12 7 7 6 6 7 8 7 7 7 7 6 5 6 5 4 4 5 5 4 4 4 4 4 5 5
11 10 11 11 11 11 11 10 9 11 12 10 11 12 12 12 13 12 11 11 12 12 13 13 11 10 8 10 10 12 14 13 11 10 10 10 10 11 12 12 14 13 10 9 9 10 11 11 11 14 14 17 16 13 12 12 11 9 8 7 7 7 7 7 7 7 7 6 7 7 6 5 5 4 5 5 5 4 4 3 3 3 2 3 4
10 11 11 11 10 11 11 9 9 10 9 10 10 10 11 12 12 12 13 11 11 12 12 12 13 12 10 8 8 9 12 12 12 11 10 9 8 9 9 9 9 8 9 8 8 7 7 8 11 9 10 10 10 9 10 9 9 8 7 7 7 8 8 10 9 7 7 6 6 6 5 5 5 5 5 5 5 5 5 4 3 2 1 2 2
10 11 10 10 10 10 10 10 10 10 10 9 5 6 8 9 10 10 9 8 8 8 10 11 12 12 11 10 9 9 7 8 7 8 11 13 11 10 10 9 8 9 10 11 9 9 9 10 10 10 10 9 7 8 8 8 8 8 9 7 6 7 7 7 7 6 6 6 6 5 5 5 5 5 5 5 4 4 4 3 3 3 2 2 2
10 10 10 10 11 10 10 11 11 10 9 9 7 5 4 6 6 7 7 6 6 9 8 7 8 9 9 10 7 7 6 3 5 11 11 12 12 12 11 11 10 8 10 12 8 7 8 7 7 7 7 6 6 7 6 6 6 7 7 7 7 7 6 6 6 5 5 5 5 4 4 3 5 5 5 5 4 4 4 4 3 2 2 2 2
9 9 9 9 9 10 10 11 10 10 10 9 9 7 4 4 5 8 6 6 9 9 10 10 11 12 10 7 7 8 8 8 9 8 9 9 9 9 8 8 8 8 6 4 4 4 3 4 5 5 5 5 5 6 5 5 4 4 6 5 5 6 5 5 5 3 4 4 4 3 3 3 5 5 5 4 5 4 3 3 2 2 1 1 1
9 10 9 9 8 9 10 11 11 11 11 10 9 8 9 6 3 3 7 10 10 12 12 12 11 11 12 11 9 6 8 9 9 9 9 10 9 9 9 8 8 8 7 5 3 4 3 3 4 4 4 5 5 5 5 6 6 5 4 4 4 4 4 4 3 4 3 4 3 3 3 3 4 4 3 3 3 4 3 2 2 2 1 3 3
9 10 9 8 8 9 10 10 9 11 11 11 10 9 8 8 9 5 3 5 9 14 14 11 11 11 11 11 11 9 7 7 8 8 8 8 8 8 9 10 8 8 4 3 3 4 4 5 5 5 5 5 5 5 5 6 6 6 5 5 4 4 5 4 3 5 4 4 3 3 3 3 3 3 3 3 3 3 2 1 1 1 1 1 1
8 8 8 8 8 8 9 9 10 10 11 11 11 10 9 8 7 8 8 5 2 6 14 15 11 8 11 11 10 10 10 10 9 9 9 8 7 6 6 5 8 10 7 5 3 4 5 5 5 5 5 6 6 5 6 6 6 7 7 7 6 5 5 4 5 5 3 3 3 3 3 3 3 3 3 3 3 3 2 2 1 1 1 1 1
7 6 4 6 8 8 8 9 9 10 10 11 11 11 10 9 8 8 7 7 8 8 8 6 10 11 7 7 8 8 8 8 8 7 6 7 7 8 8 1 3 5 5 5 5 5 4 5 5 5 5 6 6 6 7 7 7 7 6 6 5 5 5 4 3 5 3 3 3 3 3 3 3 2 2 2 2 2 2 2 2 2 1 1 1
7 7 8 8 8 8 8 7 8 9 9 9 10 11 10 9 9 7 6 7 7 7 6 7 5 6 7 8 7 7 6 5 5 4 5 6 7 7 3 4 3 5 5 5 5 5 5 5 5 6 6 6 6 7 7 7 7 6 5 5 4 3 3 3 3 3 3 3 4 4 4 3 3 4 4 4 3 3 2 2 2 2 1 1 2
7 8 8 8 7 7 7 7 7 5 5 7 9 10 10 9 8 8 7 7 8 7 7 7 5 2 4 5 5 3 3 4 5 4 5 6 9 5 6 5 4 5 5 5 5 5 5 5 6 6 6 6 6 7 7 7 6 6 5 4 4 4 3 3 3 3 3 3 3 3 3 3 2 2 3 3 3 3 2 3 3 2 1 2 6
6 6 7 8 8 8 8 7 6 7 7 8 8 8 8 9 9 9 8 7 8 7 8 8 7 7 6 6 5 4 4 5 8 7 4 2 4 5 4 4 5 5 5 5 5 5 6 6 6 6 6 6 7 7 7 6 5 4 3 5 4 4 4 4 4 3 3 4 4 3 3 3 3 3 2 2 2 2 2 1 0 2 1 1 2
5 9 4 7 7 8 7 7 7 7 7 8 8 9 8 8 9 9 9 8 7 6 8 8 7 7 7 6 5 5 6 7 7 7 6 6 4 5 5 5 5 5 4 4 4 5 5 6 6 6 6 6 6 6 6 4 5 4 4 5 4 3 3 3 3 2 2 2 2 2 2 2 2 2 2 2 2 2 2 2 2 1 2 3 2
6 5 6 5 7 7 7 7 6 6 6 7 7 7 7 8 9 9 9 9 7 5 7 7 7 7 7 8 7 7 7 5 6 6 6 6 4 4 4 2 3 4 4 4 4 4 5 5 5 6 6 6 6 6 6 6 4 3 3 3 3 3 3 3 3 2 2 2 2 2 2 2 2 2 2 2 2 2 1 2 2 2 2 2 2
5 5 6 5 4 7 7 6 6 5 6 6 7 7 7 7 8 9 9 8 7 6 8 8 7 7 6 6 7 8 8 8 8 8 8 5 4 3 2 3 3 4 3 3 4 4 5 5 5 5 5 5 6 6 6 4 4 3 3 3 3 3 3 3 2 2 2 2 2 2 2 1 2 2 3 2 1 1 2 1 2 3 2 1 1
5 6 5 6 5 6 7 6 6 6 5 5 6 6 6 6 7 7 8 6 8 8 5 7 6 5 5 6 7 9 7 7 7 8 7 6 5 4 2 2 3 3 2 3 4 3 4 5 4 3 4 4 4 4 4 3 3 3 3 3 3 3 2 2 2 2 2 2 2 2 2 3 3 2 1 3 2 2 1 2 2 2 2 2 2
4 5 5 5 5 6 6 6 6 5 6 6 5 4 4 6 7 7 8 7 7 7 5 5 5 5 3 2 5 7 6 8 8 8 6 5 5 4 3 2 2 3 3 3 3 4 3 3 3 4 3 4 4 3 3 3 3 3 2 2 2 2 2 2 2 2 2 2 2 2 1 2 2 1 2 2 2 1 1 0 1 1 2 2 2
4 5 5 5 5 5 6 6 5 5 5 3 3 4 5 6 6 6 7 7 6 5 5 6 6 6 5 2 3 4 8 7 7 6 4 4 4 2 2 2 3 3 3 2 1 2 3 3 3 3 4 3 3 3 2 2 2 2 2 2 2 2 1 2 1 1 3 3 2 2 1 2 2 2 1 1 1 2 2 2 2 2 1 2 2
4 5 5 5 5 5 6 5 5 5 5 5 4 3 4 5 5 5 6 6 6 7 6 5 6 5 6 5 6 6 7 6 5 4 2 2 2 2 2 2 2 2 2 2 2 2 2 2 3 3 3 3 3 3 2 2 1 0 1 2 3 3 2 2 2 1 1 0 2 2 2 2 2 3 3 2 1 1 2 2 2 2 1 2 2
4 5 5 5 5 5 5 4 4 4 5 5 4 4 4 4 5 5 6 6 6 6 6 5 4 4 5 5 5 6 5 5 4 3 2 1 1 2 2 1 1 1 2 2 2 2 2 2 2 2 2 2 2 2 2 3 2 2 2 1 1 3 3 2 1 0 0 3 5 0 2 0 0 2 5 2 2 2 2 1 1 1 2 2 2
4 5 5 5 6 5 4 5 4 6 5 4 5 5 5 5 5 5 5 4 4 6 6 5 5 5 4 6 4 6 5 4 2 2 1 2 1 1 1 1 1 1 2 2 2 2 2 2 2 2 1 1 1 1 2 1 3 2 2 2 3 2 1 1 1 0 0 1 2 4 4 0 2 2 2 2 1 1 0 1 1 1 1 1 1
4 5 5 5 6 6 5 5 5 5 6 5 5 5 6 6 5 5 6 5 5 6 6 6 5 5 5 5 5 5 4 3 2 1 0 0 0 0 0 0 1 2 2 2 2 2 1 2 2 1 1 1 1 1 2 2 3 2 3 2 2 4 5 6 1 1 0 0 0 0 1 1 0 0 0 0 3 1 1 1 0 1 0 1 1
4 5 6 6 6 5 5 5 5 6 5 5 6 5 6 6 5 6 6 6 5 5 5 5 5 5 5 5 5 5 4 3 2 2 0 0 1 1 0 0 1 0 0 0 1 1 1 1 0 0 0 1 1 0 0 0 0 1 1 3 5 5 3 5 5 3 5 1 0 0 1 1 1 0 0 1 0 2 0 1 2 1 0 0 1
4 5 5 5 5 5 5 5 5 6 6 6 6 6 6 6 6 6 6 6 6 5 5 5 5 5 4 5 5 5 4 2 2 2 2 1 1 1 1 1 0 0 0 0 0 1 0 1 1 1 1 1 1 1 1 1 1 2 3 4 5 3 4 3 3 5 5 2 1 2 1 3 2 2 1 1 0 1 2 1 0 2 0 0 0
4 4 4 5 5 5 5 5 6 6 6 6 7 7 6 6 6 5 5 6 6 6 6 5 5 4 3 3 5 4 2 2 2 2 2 2 2 2 1 1 1 1 1 1 1 1 1 1 1 1 1 2 1 1 2 2 3 4 5 5 4 4 3 5 2 4 5 5 3 3 2 1 1 2 2 2 1 1 2 3 2 3 2 0 0
Wind_Direction
5 360 357 351 346 342 336 330 329 326 325 320 311 296 282 273 274 280 273 258 257 258 251 247 247 239 224 222 218 209 203 209 211 207 206 207 210 211 211 211 216 209 195 227 218 205 207 209 205 203 201 201 238 227 204 203 207 214 213 206 210 204 212 220 218 154 161 182 190 190 177 181 185 185 183 173 155 185 212 176 153 183 186 185 174
10 355 8 351 350 345 339 333 330 330 327 323 318 320 322 307 291 278 273 269 258 255 253 247 241 240 230 226 220 211 206 209 209 207 205 203 210 211 215 211 210 196 223 203 215 225 207 206 203 192 200 212 208 217 208 211 203 207 208 209 204 205 205 213 222 171 160 174 192 190 175 186 192 190 187 182 172 181 192 185 173 189 190 198 179
2 358 2 352 355 353 346 339 336 335 333 329 327 325 320 317 305 285 274 270 264 255 254 251 243 238 233 228 222 215 208 209 208 207 207 209 211 211 212 206 201 194 215 214 199 214 202 207 201 193 193 212 218 220 209 210 211 208 208 209 211 205 203 216 213 210 169 175 192 193 180 188 206 183 190 181 182 184 190 188 188 188 197 193 205
356 2 360 352 357 355 352 347 342 342 338 333 328 326 320 312 309 302 286 272 267 264 261 260 251 238 235 228 223 220 214 208 204 204 208 211 214 214 213 206 201 198 210 229 208 204 216 201 201 198 201 206 216 211 217 211 213 214 212 208 209 204 208 202 223 240 200 185 191 206 185 182 201 187 185 178 181 188 195 187 192 191 192 194 203
359 2 357 353 357 357 353 353 347 345 340 336 333 329 325 318 311 306 304 292 277 267 260 258 257 256 238 229 222 220 216 211 208 204 206 212 215 216 213 206 200 193 204 219 194 202 203 199 218 210 193 205 204 209 210 210 211 213 213 209 204 206 201 203 207 221 216 196 189 207 186 182 190 188 180 180 178 192 197 196 193 196 191 200 198
10 358 1 355 358 357 355 354 352 346 344 339 336 333 328 321 311 304 297 292 282 272 266 259 259 252 244 235 222 230 220 214 212 205 206 209 213 216 212 207 205 203 207 211 215 221 194 194 202 223 202 202 204 204 210 208 209 213 211 210 207 202 200 199 209 210 218 201 188 190 181 188 183 186 184 190 184 189 191 197 198 199 194 195 201
357 3 359 1 357 356 356 356 351 349 345 342 337 334 333 327 317 307 298 289 290 288 276 269 257 256 256 259 234 224 220 211 210 205 207 208 208 211 210 202 203 205 215 219 235 197 224 173 208 216 213 204 203 202 204 206 209 213 212 209 218 203 194 205 204 205 212 208 197 187 184 186 179 179 190 191 200 197 192 193 199 195 198 197 199
359 0 1 1 359 356 357 355 352 354 348 345 340 337 336 337 330 317 305 299 290 284 279 270 265 257 253 246 275 255 230 219 211 206 206 206 206 210 206 207 208 198 206 220 221 204 204 194 202 219 214 204 207 206 202 207 206 213 205 214 213 204 200 202 208 209 208 208 208 185 191 180 179 193 185 189 202 208 206 201 200 194 193 197 207
5 4 5 3 0 358 355 355 346 352 351 347 348 344 340 340 337 335 328 314 293 283 283 277 269 262 256 243 233 263 269 243 216 205 207 207 205 206 211 204 193 188 206 213 209 209 212 217 225 230 89 21 6 37 359 356 270 214 217 211 211 204 207 209 201 214 211 205 205 199 190 187 185 185 181 191 203 207 200 207 212 198 193 190 201
6 8 8 5 2 359 357 356 355 354 352 352 352 350 345 343 339 338 335 335 326 307 286 287 281 272 267 264 239 235 242 247 226 209 205 209 206 207 202 199 202 200 207 206 206 205 208 205 214 117 122 198 208 200 202 197 221 291 308 253 219 225 213 218 213 207 211 213 194 203 201 189 190 187 192 195 207 215 203 198 207 198 197 196 195
8 10 7 5 5 2 1 0 358 358 356 354 354 352 352 348 345 342 342 340 334 330 316 294 280 270 266 259 256 232 238 253 250 204 204 209 210 207 209 209 207 206 202 202 197 201 200 199 204 151 167 143 183 168 187 188 208 199 149 306 27 329 226 229 238 233 227 223 147 220 199 199 198 185 192 193 196 208 204 196 202 197 196 201 200
11 11 9 9 8 6 4 3 3 1 0 359 356 355 353 353 350 346 345 344 342 338 337 326 304 278 259 255 254 250 235 231 208 205 212 215 225 215 219 213 209 198 197 187 207 196 193 189 202 189 198 201 192 168 154 132 162 146 91 61 62 76 64 62 267 240 241 291 102 130 87 21 256 189 199 194 188 196 208 204 204 199 197 205 213
12 12 12 11 9 8 6 6 5 5 4 2 359 357 356 356 355 351 349 347 344 345 343 339 334 319 275 265 264 250 240 161 202 203 211 217 224 224 209 224 199 193 196 193 202 198 195 191 192 189 176 146 189 183 175 144 122 116 111 105 80 50 55 85 103 164 277 228 208 180 185 197 224 219 201 198 174 183 195 208 208 206 204 207 218
16 14 13 12 11 9 9 8 8 7 5 5 2 2 1 359 356 354 349 349 350 346 345 345 338 337 335 310 275 256 239 25 335 214 229 235 228 212 229 224 195 195 189 188 194 198 197 190 183 186 169 175 190 179 172 165 158 160 170 190 172 120 126 124 251 236 291 275 168 160 190 214 223 209 146 138 159 161 153 196 228 226 210 219 226
19 16 15 13 12 11 9 10 10 9 7 6 6 6 5 2 359 359 355 356 353 348 350 346 346 342 342 339 334 341 46 7 327 256 218 226 270 273 227 230 197 175 176 185 188 186 192 186 189 182 173 175 178 172 169 166 166 178 181 186 168 146 66 13 343 289 234 219 241 185 179 204 214 158 141 133 141 143 151 197 281 273 229 122 119
21 18 18 17 14 13 11 12 12 12 11 11 10 9 8 6 3 0 359 360 358 355 355 356 352 349 346 350 344 343 348 5 327 284 239 216 203 232 233 213 153 125 126 153 168 153 186 195 205 199 194 164 126 152 165 163 161 169 171 164 130 91 61 35 14 43 41 61 58 69 64 53 42 56 59 133 172 171 174 155 194 222 201 197 193
22 21 20 19 18 17 16 15 17 16 17 17 15 13 11 9 9 6 7 6 4 2 358 2 0 360 358 360 354 346 344 351 329 298 247 196 173 215 237 209 146 120 115 130 145 148 124 237 207 173 165 136 134 144 143 170 169 155 150 140 118 103 91 77 62 72 78 77 79 79 83 75 67 61 59 41 26 240 183 175 192 201 208 207 192
25 22 22 19 16 16 15 15 15 15 18 21 21 21 17 15 15 14 12 9 9 8 6 4 6 8 8 6 3 357 355 350 338 342 215 192 197 189 198 206 145 113 108 97 110 86 58 35 352 173 143 130 138 140 157 175 164 155 146 134 125 115 113 111 101 88 93 95 93 94 93 93 85 73 56 45 33 356 201 180 162 203 214 212 231
25 24 22 19 16 15 11 11 13 12 13 13 16 20 23 23 19 14 18 20 16 14 13 14 13 15 13 13 13 12 3 358 352 351 27 42 51 83 80 224 166 124 112 85 73 83 59 37 20 23 96 119 129 138 164 221 156 155 149 140 130 124 125 131 123 122 122 118 117 111 99 94 87 78 65 54 38 35 41 56 60 273 158 71 58
23 24 25 24 22 19 16 14 12 14 15 15 13 12 13 17 21 23 22 18 19 20 20 20 22 20 16 18 22 18 10 3 360 349 35 39 55 79 83 92 123 101 94 90 84 59 50 44 26 34 61 62 57 40 8 315 154 146 150 143 132 127 137 135 118 121 111 105 103 97 94 90 84 72 68 59 50 43 39 36 25 20 40 98 169
22 22 23 24 24 24 21 17 15 14 15 13 17 20 19 16 14 17 20 23 23 22 21 22 24 24 23 22 25 26 20 12 3 347 35 57 56 53 63 54 51 78 75 70 62 67 61 47 40 34 57 55 47 35 22 21 107 138 132 131 117 110 113 112 89 98 103 101 103 105 100 91 81 75 71 73 77 70 68 63 68 9 2 146 189
22 22 20 22 23 25 23 22 19 14 11 11 13 17 20 21 21 20 21 20 21 23 22 20 21 21 24 26 26 26 23 25 12 348 15 64 67 68 64 45 45 83 81 72 63 62 56 54 44 56 64 61 51 42 35 34 34 67 84 96 105 111 114 113 114 108 108 106 104 104 106 101 104 107 101 92 83 80 80 70 57 52 38 27 17
19 21 20 19 20 22 25 24 23 22 18 15 16 18 14 17 19 20 22 22 21 22 20 21 19 19 21 24 22 19 22 36 24 6 13 58 68 68 68 64 57 57 71 71 68 68 70 73 68 69 69 66 60 51 42 45 55 85 104 108 112 119 127 123 127 131 128 126 120 110 111 112 109 104 103 102 97 87 83 70 71 75 66 52 37
17 18 21 20 17 20 20 26 25 23 23 23 22 23 20 17 20 21 23 23 22 22 21 21 18 17 19 22 26 18 16 38 39 32 31 47 59 65 65 64 64 67 63 63 64 72 79 80 80 78 77 75 70 64 58 54 57 50 66 87 120 165 133 133 140 119 112 113 111 104 92 88 93 88 77 71 74 77 78 84 83 72 78 85 76
15 15 18 18 15 20 19 20 27 24 22 25 25 23 23 21 18 18 21 25 27 27 24 22 25 27 27 24 22 20 15 22 40 41 43 48 57 61 61 60 57 64 67 51 52 58 75 79 76 75 77 78 77 71 60 51 47 43 34 26 41 114 116 113 114 119 108 95 86 79 74 68 66 62 65 83 98 103 101 90 76 73 78 79 76
17 16 16 17 15 15 22 16 23 30 21 24 26 26 23 24 23 17 15 22 26 28 30 29 27 26 28 28 26 22 22 24 30 33 31 41 51 56 60 61 64 66 73 71 64 61 61 67 69 67 63 64 66 67 67 60 50 42 37 33 36 40 55 79 80 78 76 76 77 80 78 77 73 67 59 62 64 57 62 91 111 121 127 120 110
17 19 18 15 16 14 20 11 4 29 26 20 23 24 25 26 29 24 20 14 19 26 28 32 35 36 34 31 30 26 29 26 24 26 30 37 40 42 51 55 54 58 55 50 45 48 46 51 65 70 73 68 66 65 61 55 50 34 35 37 42 41 38 53 72 83 84 79 77 74 75 70 71 77 72 66 61 50 32 59 80 93 123 124 122
16 19 20 19 17 14 16 13 6 19 24 29 23 19 20 25 31 32 23 13 7 13 26 30 33 36 41 46 38 34 33 28 20 17 17 24 37 44 47 49 47 45 51 47 40 31 37 43 47 46 52 54 54 52 53 53 52 48 34 30 46 57 58 57 59 62 64 72 77 77 72 71 69 67 69 63 55 41 25 40 63 76 86 151 121
19 20 23 21 18 18 16 17 18 14 15 19 47 45 33 24 28 41 41 25 15 3 10 20 14 34 45 36 42 40 30 25 6 18 39 40 40 39 34 34 33 39 40 44 47 39 40 42 38 40 41 46 43 52 54 58 60 53 41 27 29 34 41 40 50 46 47 62 68 76 83 89 90 82 77 74 58 44 23 45 22 45 33 25 62
18 19 23 24 16 15 17 19 17 15 17 11 30 98 28 33 50 31 44 49 39 46 38 26 357 352 28 52 38 37 35 21 11 44 48 51 53 58 58 50 43 44 47 45 47 55 46 45 41 43 43 39 45 47 43 36 41 39 39 31 32 33 39 46 50 56 59 71 80 79 80 89 94 90 87 82 73 60 23 9 51 18 49 91 118
20 16 21 26 21 6 18 17 18 17 11 11 9 24 111 114 84 102 107 69 57 50 45 39 29 21 5 20 75 74 39 31 41 50 56 59 62 57 50 47 44 39 34 71 43 50 49 57 62 56 58 56 66 71 67 71 68 67 69 56 44 41 42 44 40 53 73 77 69 73 82 80 80 81 86 84 83 72 62 41 46 32 74 121 116
22 19 19 19 26 16 15 19 15 15 16 13 10 6 5 24 101 134 112 99 82 64 59 52 46 39 31 19 8 62 53 39 38 43 42 42 41 41 41 39 31 31 15 49 64 53 49 56 65 69 70 73 77 82 83 90 88 84 82 74 60 45 51 51 31 64 66 71 76 76 79 79 84 86 84 83 82 83 70 58 53 45 39 32 21
26 23 17 14 20 22 18 20 16 17 15 14 12 4 8 4 4 23 146 121 83 83 74 63 55 50 44 43 40 40 31 28 32 39 44 46 47 42 43 37 31 10 1 63 76 71 68 69 78 86 90 93 88 89 88 89 91 86 82 87 85 70 63 56 41 66 64 69 80 82 82 84 82 84 81 83 81 79 71 62 71 96 106 112 107
30 30 14 5 17 17 18 15 16 16 15 14 14 8 8 359 7 1 8 31 115 110 94 75 51 57 62 48 43 40 37 34 31 29 27 28 28 34 45 60 60 44 42 54 61 74 74 80 85 90 94 97 100 100 100 100 100 103 100 99 95 91 86 87 81 74 81 79 79 74 70 73 86 89 88 84 81 81 76 67 60 69 60 60 53
16 98 113 353 10 16 12 12 13 13 6 11 11 12 7 5 355 4 6 10 10 7 0 62 71 44 44 56 46 41 38 34 28 19 8 357 335 329 295 350 48 45 49 55 65 75 86 94 102 102 105 104 105 106 108 109 107 103 98 94 92 87 86 85 86 86 84 82 75 71 67 68 64 66 74 83 89 88 83 75 64 58 70 77 66
23 14 15 12 2 5 2 7 3 11 3 5 10 12 5 7 359 5 7 5 0 1 0 14 40 97 87 69 59 42 28 28 23 9 349 319 321 303 343 39 41 43 48 50 61 67 76 93 102 107 108 110 110 108 108 109 107 99 92 95 100 103 100 92 89 86 82 81 80 79 78 77 80 89 93 88 82 72 70 71 70 56 37 37 63
20 19 13 2 353 354 356 352 8 357 317 347 9 10 11 12 9 0 9 3 360 350 359 357 15 102 147 75 74 66 34 335 340 337 327 307 290 302 37 33 44 49 55 62 66 76 89 98 106 109 112 111 113 116 118 114 109 102 95 97 96 98 93 91 86 95 94 89 80 74 75 74 75 82 91 96 95 101 105 105 94 84 67 279 264
24 20 14 4 344 347 351 351 8 328 342 2 3 12 8 10 12 11 8 7 358 351 346 358 6 357 15 34 52 24 336 284 257 261 284 308 14 32 31 36 32 43 50 61 76 91 94 100 106 111 115 118 119 123 120 116 112 109 99 88 84 82 91 85 70 83 96 105 104 102 98 100 99 95 85 85 90 90 75 48 85 135 137 3 39
12 130 91 347 332 347 345 351 345 348 355 352 3 5 15 4 11 8 5 5 4 356 350 354 356 5 14 28 27 15 7 13 12 8 5 3 11 19 36 33 31 35 54 70 78 91 100 104 108 112 116 117 120 121 121 119 108 105 109 111 113 120 123 112 112 112 113 110 110 109 101 100 93 96 106 103 99 89 86 89 70 36 79 84 70
347 353 29 345 343 348 347 345 346 346 351 348 357 2 9 4 7 5 6 3 6 357 352 355 353 13 22 16 12 347 347 357 360 1 5 356 1 11 35 39 25 41 57 75 87 99 110 112 116 117 118 119 119 119 120 121 115 117 124 126 121 112 107 111 115 114 108 103 97 98 98 99 97 92 85 91 95 89 96 98 83 57 49 83 96
349 355 348 5 351 326 359 349 351 357 338 350 347 356 6 360 3 5 7 0 8 360 356 3 11 23 33 11 353 337 326 352 354 352 358 5 359 9 36 50 22 45 70 94 106 109 110 114 115 117 118 118 120 122 124 123 126 124 107 109 109 98 91 85 91 94 98 104 103 108 101 90 100 109 109 108 178 169 147 142 119 117 115 82 36
354 346 348 355 341 355 348 352 349 346 331 342 348 357 355 353 357 6 12 5 6 4 0 7 21 28 56 18 359 330 328 357 352 352 356 6 4 9 47 56 17 41 73 82 92 99 104 111 117 117 116 120 122 124 124 127 128 122 121 110 105 112 116 113 101 95 102 95 90 68 61 63 71 77 52 335 71 45 35 65 78 71 70 76 71
357 347 351 344 341 349 344 342 343 347 347 348 345 341 331 335 351 354 359 11 10 7 4 5 7 12 33 29 327 284 330 2 13 7 12 21 17 6 28 36 23 32 55 71 96 106 110 109 110 116 119 122 126 131 135 126 131 129 123 107 100 103 109 113 118 127 98 95 88 91 127 164 158 113 77 85 69 65 56 79 97 94 77 43 55
340 344 350 336 338 339 345 347 352 349 352 352 292 298 323 334 343 347 349 3 3 6 7 0 359 351 348 319 268 298 8 14 15 14 23 9 20 44 35 26 16 15 33 57 86 103 118 120 114 108 111 112 104 98 106 115 119 122 114 131 126 112 120 119 126 145 138 124 127 133 79 70 112 108 79 57 123 106 88 45 34 28 50 88 55
337 341 346 339 346 339 342 356 356 348 347 329 334 333 317 326 340 340 340 348 350 350 9 354 349 345 353 358 357 348 3 26 20 13 17 27 29 41 32 23 7 1 38 63 67 100 109 104 110 117 125 127 125 130 126 117 107 89 126 141 155 168 116 81 63 39 30 176 154 156 163 167 156 144 146 140 101 98 90 87 75 78 56 44 69
340 335 341 340 337 337 325 341 338 333 343 339 339 340 342 331 333 338 341 338 342 342 359 348 354 359 350 355 351 344 6 27 32 17 41 31 38 31 34 29 25 355 39 64 62 56 62 108 121 129 135 125 133 135 132 133 150 133 132 99 47 64 80 76 49 11 246 302 320 160 119 121 60 38 355 326 76 52 73 45 52 32 90 100 69
338 334 338 342 337 324 324 314 318 339 325 329 332 335 338 346 343 342 334 336 322 319 328 340 345 350 351 353 353 346 8 38 54 43 49 30 29 16 28 37 41 52 69 58 45 95 90 73 82 90 97 129 144 178 179 165 160 161 181 167 141 133 123 118 112 212 169 317 336 348 349 315 135 146 198 270 132 117 88 78 99 74 359 32 79
340 337 345 334 327 330 329 318 317 294 300 324 333 338 330 326 334 333 335 332 318 324 328 335 341 351 353 347 357 353 11 44 70 68 76 153 102 89 50 44 39 54 50 49 42 39 52 63 65 74 116 132 186 207 210 201 192 171 184 178 87 48 27 343 270 142 102 105 54 328 260 290 7 239 82 22 335 349 331 88 128 99 22 15 27
333 342 339 343 338 326 334 327 318 311 316 318 314 314 324 327 335 336 332 331 330 323 325 330 334 348 350 354 355 346 4 2 45 85 76 94 107 113 102 65 52 53 60 76 89 81 66 64 58 98 94 130 130 152 162 231 89 157 90 76 73 62 37 356 340 35 350 311 157 195 249 243 248 12 356 308 255 259 108 9 334 358 39 53 2
337 335 334 336 336 341 333 325 326 323 320 313 313 315 318 322 330 342 336 334 336 332 330 328 328 345 356 351 354 357 346 338 13 73 106 123 115 123 119 117 106 318 161 150 135 123 100 101 130 112 104 88 102 127 124 123 87 71 72 71 67 49 34 9 352 2 330 320 282 243 312 341 343 293 273 133 122 2 271 220 342 295 30 4 258
329 323 332 343 339 332 333 339 336 329 324 330 323 317 317 324 331 337 343 343 336 334 328 322 331 348 3 343 1 18 33 6 7 58 127 142 141 138 141 147 159 174 171 158 167 166 156 173 149 121 122 115 118 115 113 97 78 66 64 68 56 46 36 356 15 49 356 320 298 259 225 221 274 268 243 232 218 192 28 358 287 297 300 253 55